Regional Weather Roundup
Issued by NWS

Home | Current Version | Previous Version | Text Only | Print | Product List | Glossary On
Versions: 1 2 3 4 5 6 7 8 9 10 11 12 13 14 15 16 17 18 19 20 21 22 23 24 25 26 27 28 29 30 31 32 33 34 35 36 37 38 39 40 41 42 43 44 45 46 47 48 49 50
000
ASUS43 KDTX 210401
RWRMI
MICHIGAN HOURLY REGIONAL WEATHER ROUNDUP
NATIONAL WEATHER SERVICE DETROIT/PONTIAC MI
1200 AM EDT THU SEP 21 2017

NOTE: "FAIR" INDICATES FEW OR NO CLOUDS BELOW 12,000 FEET WITH NO
SIGNIFICANT WEATHER AND/OR OBSTRUCTION TO VISIBILITY.

MIZ047>049-052>055-059>063-066>070-074>076-081>083-210500-
SOUTHEAST LOWER MICHIGAN

CITY           SKY/WX    TMP DP  RH WIND       PRES   REMARKS
ADRIAN         CLEAR     69  66  90 CALM      30.02R
ALMA           CLOUDY    69  62  77 S7        29.99R
ANN ARBOR      CLEAR     68  67  96 CALM      30.02R
BAD AXE        CLEAR     67  63  88 S3        30.02R
CARO           CLEAR     64  62  94 CALM      30.00R
DETROIT CITY   CLEAR     69  66  90 S3        30.01S
DETROIT        CLEAR     69  67  93 S5        30.02R
FLINT          CLEAR     70  66  87 S6        30.01R
GROSSE ILE     CLEAR     71  67  89 S3        30.01R
HILLSDALE      MOCLDY    70  64  83 SE6       30.02R
HOWELL         CLEAR     69  66  90 SE5       30.02R

CITY           SKY/WX    TMP DP  RH WIND       PRES   REMARKS
JACKSON        CLEAR     72  66  81 SE7       30.01R
LAMBERTVILLE   CLEAR     68  65  91 CALM      30.01R FOG
LANSING        CLEAR     73  65  75 SE7       29.99R
LAPEER         FAIR      64  63  96 CALM      30.02R
MASON          CLEAR     72  65  80 SE7       30.01R
MONROE         CLEAR     72  66  83 CALM      30.01R
MT. CLEMENS    CLEAR     68  68 100 CALM      30.01R
PONTIAC        CLEAR     69  67  93 CALM      30.02R
PORT HURON     CLEAR     68  64  88 S3        30.02R
TRI CITIES     CLEAR     72  66  81 S7        30.00R
MIDLAND        FAIR      66  64  93 CALM      29.99R
TROY           CLEAR     70  66  86 SW3       30.04R
SAGINAW HB     CLEAR     68  63  83 SE5       29.99R
$$
MIZ043>046-050>051-056>058-064>065-071>073-077>080-210500-
SOUTHWEST LOWER MICHIGAN

CITY           SKY/WX    TMP DP  RH WIND       PRES   REMARKS
BATTLE CREEK   CLEAR     74  69  85 S10       29.99R
BENTON HARBOR  CLEAR     75  68  78 SE6       29.95R
BIG RAPIDS     CLOUDY    66  62  87 W3        29.98R
COLDWATER      CLEAR     72  70  93 SE5       30.00R
FREMONT        FAIR      73  68  82 CALM      29.97R
HOLLAND        CLOUDY    75  68  78 S3        29.97R
GRAND RAPIDS   CLOUDY    74  69  85 S5        29.98R
IONIA          FAIR      72  66  81 SE7       29.99R
KALAMAZOO      CLEAR     73  66  78 S5        29.99R
LUDINGTON      CLOUDY    74  67  78 S3        29.94R
MARSHALL       CLEAR     73  70  91 SE6       29.99R
MOUNT PLEASANT CLOUDY    67  64  90 CALM      29.98S
MUSKEGON       CLOUDY    77  68  73 S6        29.96R
SOUTH HAVEN    CLOUDY    76  69  78 S5        29.96R
$$
MIZ016>042-210500-
NORTHERN LOWER MICHIGAN

CITY           SKY/WX    TMP DP  RH WIND       PRES   REMARKS
ALPENA         FOG       63  63 100 CALM      30.01R VSB 1/2
BEAVER ISLAND  CLOUDY    73  64  75 W12G18    29.96R
BELLAIRE       CLOUDY    74  63  67 S10G17    29.92S
CADILLAC       CLOUDY    73  62  69 SE3       29.99R
CHARLEVOIX     CLOUDY    72  64  76 SE8       29.94R
FRANKFORT      CLOUDY    78  67  68 SE10      29.91R
GAYLORD        CLOUDY    68  62  81 S10       29.99R
GRAYLING       CLOUDY    66  62  86 SE6       30.00R
HARBOR SPRINGS MOCLDY    69  65  88 NE5       29.93R
HOUGHTON LAKE  CLOUDY    68  63  84 SE8       30.00R
MANISTEE       CLOUDY    75  66  73 SE6       29.93R
OSCODA         CLEAR     63  63 100 CALM      29.99S FOG
PELLSTON       CLOUDY    69  65  86 SE8       29.94R
ROGERS CITY    CLOUDY    68  64  88 S8        29.99R
TRAVERSE CITY  CLOUDY    74  64  71 VRB7      29.91R
$$
MIZ007>008-015-210500-
EASTERN UPPER MICHIGAN

CITY           SKY/WX    TMP DP  RH WIND       PRES   REMARKS
KINROSS        CLOUDY    65  64  97 SE12      29.96R FOG
MACKINAC ISLAN CLOUDY    71  65  83 SE9       29.94R
NEWBERRY       LGT RAIN  68  67  97 SW7       29.94R
S. S. MARIE    CLOUDY    67  65  93 SE9       29.96S FOG
MUNISING         N/A     64  64 100 NW6       29.91R
$$
MIZ004>006-011>014-085-210500-
CENTRAL UPPER MICHIGAN

CITY           SKY/WX    TMP DP  RH WIND       PRES   REMARKS
MANISTIQUE     LGT RAIN  67  61  81 SE5       29.92R
ESCANABA       CLOUDY    68  67  96 SE3       29.91R
MENOMINEE      CLOUDY    71  68  90 N6        29.90R
SAWYER-GWINN   CLOUDY    65  64  94 E3        29.93R
$$
MIZ001>003-009>011-084-210500-
WESTERN UPPER MICHIGAN

CITY           SKY/WX    TMP DP  RH WIND       PRES   REMARKS
IRON MOUNTAIN  FOG       66  64  94 S3        29.91R VSB 3/4
HOUGHTON       CLEAR     60  55  83 NW9       29.90R
COPPER HARBOR    N/A     64  58  80 N3        29.91R
IRONWOOD       PTCLDY    53  52  96 CALM      29.96R
$$

ABBREVIATIONS USED IN REMARKS
   TC - TEMPERATURE IN CELSIUS
  WCI - WIND CHILL INDEX
   HX - HEAT INDEX
  VSB - VISIBILITY




USA.gov is the U.S. government's official web portal to all federal, state and local government web resources and services.